| time (UTC) | temp F | wind direction | speed MPH | gust MPH | rain 1hr in | rain 24hr in | rain mn in | humidity % | barometer mb |
| 20260903213801 | 62 | 270 | 15.0 | 19.0 | 0.00 | 0.00 | 0.00 | 64 | 1012.6 |
| 20260903213251 | 62 | 270 | 12.0 | 16.0 | 0.00 | 0.00 | 0.00 | 64 | 1012.6 |
| 20260903211721 | 63 | 270 | 8.0 | 15.0 | 0.00 | 0.00 | 0.00 | 61 | 1012.2 |
| 20260903211211 | 63 | 180 | 7.0 | 15.0 | 0.00 | 0.00 | 0.00 | 59 | 1012.1 |
| 20260903210701 | 63 | 270 | 9.0 | 18.0 | 0.00 | 0.00 | 0.00 | 58 | 1011.9 |
| 20260903210151 | 64 | 270 | 11.0 | 21.0 | 0.00 | 0.00 | 0.00 | 60 | 1012.1 |
| 20260903205641 | 64 | 270 | 13.0 | 22.0 | 0.00 | 0.00 | 0.00 | 58 | 1012.2 |
| 20260903205130 | 64 | 270 | 15.0 | 22.0 | 0.00 | 0.00 | 0.00 | 56 | 1012.0 |
| 20260903204620 | 64 | 270 | 15.0 | 20.0 | 0.00 | 0.00 | 0.00 | 55 | 1011.8 |
| 20260903204113 | 64 | 270 | 10.0 | 21.0 | 0.00 | 0.00 | 0.00 | 57 | 1011.7 |
| 20260903202539 | 64 | 270 | 11.0 | 24.0 | 0.00 | 0.00 | 0.00 | 57 | 1011.7 |
| 20260903201521 | 64 | 225 | 20.0 | 25.0 | 0.00 | 0.00 | 0.00 | 56 | 1011.7 |
| 20260903201009 | 64 | 270 | 12.0 | 23.0 | 0.00 | 0.00 | 0.00 | 56 | 1011.5 |
| 20260903200459 | 65 | 225 | 17.0 | 23.0 | 0.00 | 0.00 | 0.00 | 53 | 1011.7 |
| 20260903195949 | 65 | 225 | 13.0 | 26.0 | 0.00 | 0.00 | 0.00 | 54 | 1011.7 |
| 20260903195439 | 65 | 270 | 15.0 | 27.0 | 0.00 | 0.00 | 0.00 | 54 | 1011.6 |
| 20260903194929 | 65 | 270 | 20.0 | 27.0 | 0.00 | 0.00 | 0.00 | 51 | 1011.7 |
| 20260903194419 | 65 | 270 | 22.0 | 27.0 | 0.00 | 0.00 | 0.00 | 53 | 1011.7 |
| 20260903193908 | 65 | 270 | 15.0 | 30.0 | 0.00 | 0.00 | 0.00 | 52 | 1011.6 |
| 20260903192338 | 66 | 270 | 23.0 | 33.0 | 0.00 | 0.00 | 0.00 | 53 | 1012.0 |
| 20260903191828 | 66 | 270 | 17.0 | 29.0 | 0.00 | 0.00 | 0.00 | 55 | 1011.7 |
| 20260903191318 | 65 | 270 | 14.0 | 29.0 | 0.00 | 0.00 | 0.00 | 57 | 1011.7 |
| 20260903190808 | 65 | 270 | 15.0 | 27.0 | 0.00 | 0.00 | 0.00 | 58 | 1011.6 |
| 20260903190258 | 65 | 270 | 11.0 | 24.0 | 0.00 | 0.00 | 0.00 | 60 | 1011.7 |
| 20260903185748 | 65 | 270 | 13.0 | 24.0 | 0.00 | 0.00 | 0.00 | 61 | 1011.8 |
| 20260903185238 | 65 | 270 | 15.0 | 27.0 | 0.00 | 0.00 | 0.00 | 60 | 1011.6 |
| 20260903184728 | 65 | 270 | 17.0 | 27.0 | 0.00 | 0.00 | 0.00 | 59 | 1011.7 |
| 20260903183157 | 66 | 270 | 14.0 | 28.0 | 0.00 | 0.00 | 0.00 | 53 | 1011.3 |
| 20260903182647 | 66 | 270 | 15.0 | 28.0 | 0.00 | 0.00 | 0.00 | 56 | 1011.3 |
| 20260903182137 | 66 | 270 | 17.0 | 27.0 | 0.00 | 0.00 | 0.00 | 56 | 1011.6 |
| 20260903181117 | 67 | 270 | 12.0 | 24.0 | 0.00 | 0.00 | 0.00 | 52 | 1011.5 |
| 20260903180607 | 67 | 270 | 12.0 | 21.0 | 0.00 | 0.00 | 0.00 | 50 | 1011.2 |
| 20260903180056 | 67 | 270 | 14.0 | 21.0 | 0.00 | 0.00 | 0.00 | 53 | 1011.1 |
| 20260903175546 | 67 | 270 | 10.0 | 22.0 | 0.00 | 0.00 | 0.00 | 50 | 1011.4 |
| 20260903175036 | 67 | 270 | 15.0 | 24.0 | 0.00 | 0.00 | 0.00 | 52 | 1011.5 |
| 20260903174526 | 66 | 270 | 19.0 | 24.0 | 0.00 | 0.00 | 0.00 | 50 | 1011.3 |
| 20260903174030 | 66 | 270 | 9.0 | 23.0 | 0.00 | 0.00 | 0.00 | 54 | 1011.3 |
| 20260903173505 | 66 | 270 | 10.0 | 23.0 | 0.00 | 0.00 | 0.00 | 55 | 1011.4 |
| 20260903172446 | 66 | 0 | 7.0 | 18.0 | 0.00 | 0.00 | 0.00 | 54 | 1011.6 |
| 20260903171936 | 66 | 225 | 11.0 | 21.0 | 0.00 | 0.00 | 0.00 | 53 | 1011.4 |
| 20260903171426 | 66 | 0 | 5.0 | 21.0 | 0.00 | 0.00 | 0.00 | 55 | 1011.5 |
| 20260903170916 | 66 | 270 | 14.0 | 19.0 | 0.00 | 0.00 | 0.00 | 53 | 1011.6 |
| 20260903170405 | 66 | 270 | 4.0 | 17.0 | 0.00 | 0.00 | 0.00 | 56 | 1011.6 |
| 20260903165855 | 66 | 270 | 12.0 | 17.0 | 0.00 | 0.00 | 0.00 | 56 | 1011.5 |
| 20260903165345 | 66 | 0 | 12.0 | 17.0 | 0.00 | 0.00 | 0.00 | 57 | 1011.7 |
| 20260903164835 | 66 | 315 | 4.0 | 16.0 | 0.00 | 0.00 | 0.00 | 59 | 1011.4 |
| 20260903164326 | 65 | 270 | 3.0 | 16.0 | 0.00 | 0.00 | 0.00 | 58 | 1011.6 |
| 20260903163305 | 64 | 270 | 9.0 | 15.0 | 0.00 | 0.00 | 0.00 | 59 | 1011.9 |
| 20260903162755 | 64 | 270 | 6.0 | 15.0 | 0.00 | 0.00 | 0.00 | 61 | 1011.9 |
| 20260903162245 | 64 | 315 | 9.0 | 14.0 | 0.00 | 0.00 | 0.00 | 61 | 1011.7 |
| 20260903161734 | 64 | 180 | 3.0 | 15.0 | 0.00 | 0.00 | 0.00 | 61 | 1012.1 |
| 20260903161224 | 64 | 270 | 4.0 | 15.0 | 0.00 | 0.00 | 0.00 | 62 | 1012.0 |
| 20260903160714 | 64 | 270 | 4.0 | 11.0 | 0.00 | 0.00 | 0.00 | 61 | 1012.0 |
| 20260903160204 | 63 | 0 | 4.0 | 11.0 | 0.00 | 0.00 | 0.00 | 65 | 1011.8 |
| 20260903155653 | 63 | 0 | 2.0 | 13.0 | 0.00 | 0.00 | 0.00 | 63 | 1012.1 |
| 20260903155143 | 63 | 0 | 2.0 | 13.0 | 0.00 | 0.00 | 0.00 | 65 | 1012.1 |
| 20260903154634 | 62 | 0 | 7.0 | 13.0 | 0.00 | 0.00 | 0.00 | 65 | 1012.3 |
| 20260903154124 | 62 | 0 | 6.0 | 10.0 | 0.00 | 0.00 | 0.00 | 66 | 1012.1 |
| 20260903153613 | 62 | 0 | 0.0 | 9.0 | 0.00 | 0.00 | 0.00 | 67 | 1012.5 |
| 20260903153103 | 61 | 0 | 6.0 | 9.0 | 0.00 | 0.00 | 0.00 | 68 | 1012.3 |
| 20260903152553 | 61 | 0 | 3.0 | 9.0 | 0.00 | 0.00 | 0.00 | 67 | 1012.1 |
| 20260903151533 | 61 | 90 | 2.0 | 8.0 | 0.00 | 0.00 | 0.00 | 68 | 1012.3 |
| 20260903151023 | 61 | 0 | 2.0 | 9.0 | 0.00 | 0.00 | 0.00 | 69 | 1012.2 |
| 20260903150513 | 61 | 45 | 3.0 | 9.0 | 0.00 | 0.00 | 0.00 | 69 | 1012.0 |
| 20260903150003 | 61 | 0 | 4.0 | 9.0 | 0.00 | 0.00 | 0.00 | 69 | 1012.1 |
| 20260903145453 | 61 | 0 | 3.0 | 8.0 | 0.00 | 0.00 | 0.00 | 69 | 1012.3 |
| 20260903144952 | 61 | 0 | 4.0 | 8.0 | 0.00 | 0.00 | 0.00 | 68 | 1012.5 |
| 20260903144432 | 60 | 45 | 4.0 | 8.0 | 0.00 | 0.00 | 0.00 | 69 | 1012.3 |
| 20260903143922 | 60 | 90 | 2.0 | 4.0 | 0.00 | 0.00 | 0.00 | 68 | 1012.4 |
| 20260903143412 | 60 | 90 | 1.0 | 6.0 | 0.00 | 0.00 | 0.00 | 67 | 1012.3 |
| 20260903142902 | 60 | 90 | 2.0 | 8.0 | 0.00 | 0.00 | 0.00 | 70 | 1012.3 |
| 20260903142351 | 60 | 90 | 3.0 | 8.0 | 0.00 | 0.00 | 0.00 | 70 | 1012.4 |
| 20260903141842 | 60 | 0 | 2.0 | 4.0 | 0.00 | 0.00 | 0.00 | 69 | 1012.4 |
| 20260903141332 | 59 | 90 | 2.0 | 8.0 | 0.00 | 0.00 | 0.00 | 69 | 1012.8 |
| 20260903140821 | 59 | 90 | 2.0 | 8.0 | 0.00 | 0.00 | 0.00 | 69 | 1012.7 |
| 20260903140311 | 59 | 90 | 0.0 | 9.0 | 0.00 | 0.00 | 0.00 | 72 | 1012.7 |
| 20260903135801 | 59 | 90 | 8.0 | 9.0 | 0.00 | 0.00 | 0.00 | 72 | 1012.9 |
| 20260903135251 | 59 | 90 | 0.0 | 7.0 | 0.00 | 0.00 | 0.00 | 74 | 1012.9 |
| 20260903134741 | 58 | 90 | 4.0 | 8.0 | 0.00 | 0.00 | 0.00 | 74 | 1012.9 |
| 20260903134231 | 58 | 180 | 0.0 | 11.0 | 0.00 | 0.00 | 0.00 | 75 | 1012.8 |
| 20260903133721 | 57 | 90 | 2.0 | 11.0 | 0.00 | 0.00 | 0.00 | 75 | 1012.8 |
| 20260903133211 | 57 | 90 | 2.0 | 9.0 | 0.00 | 0.00 | 0.00 | 77 | 1012.8 |
| 20260903131640 | 57 | 135 | 3.0 | 8.0 | 0.00 | 0.00 | 0.00 | 79 | 1012.7 |
| 20260903131130 | 57 | 90 | 2.0 | 11.0 | 0.00 | 0.00 | 0.00 | 79 | 1012.9 |
| 20260903130620 | 57 | 135 | 2.0 | 12.0 | 0.00 | 0.00 | 0.00 | 79 | 1013.1 |
| 20260903130110 | 57 | 90 | 8.0 | 12.0 | 0.00 | 0.00 | 0.00 | 78 | 1013.1 |
| 20260903125559 | 57 | 135 | 7.0 | 11.0 | 0.00 | 0.00 | 0.00 | 79 | 1013.4 |
| 20260903124539 | 57 | 0 | 5.0 | 15.0 | 0.00 | 0.00 | 0.00 | 78 | 1012.9 |
| 20260903124029 | 57 | 180 | 10.0 | 15.0 | 0.00 | 0.00 | 0.00 | 78 | 1013.5 |
| 20260903123519 | 57 | 180 | 9.0 | 16.0 | 0.00 | 0.00 | 0.00 | 79 | 1013.9 |
| 20260903123009 | 57 | 180 | 10.0 | 16.0 | 0.00 | 0.00 | 0.00 | 78 | 1013.4 |
| 20260903122459 | 57 | 180 | 13.0 | 19.0 | 0.00 | 0.00 | 0.00 | 79 | 1013.2 |
| 20260903121950 | 58 | 135 | 14.0 | 20.0 | 0.00 | 0.00 | 0.00 | 78 | 1013.4 |
| 20260903121439 | 58 | 180 | 15.0 | 21.0 | 0.00 | 0.00 | 0.00 | 78 | 1013.2 |
| 20260903120929 | 58 | 180 | 13.0 | 22.0 | 0.00 | 0.00 | 0.00 | 79 | 1013.0 |
| 20260903120418 | 58 | 180 | 17.0 | 24.0 | 0.00 | 0.00 | 0.00 | 78 | 1013.1 |
| 20260903115915 | 58 | 180 | 22.0 | 30.0 | 0.00 | 0.00 | 0.00 | 76 | 1012.9 |
| 20260903115358 | 58 | 180 | 18.0 | 30.0 | 0.00 | 0.00 | 0.00 | 78 | 1012.9 |
| 20260903114848 | 58 | 180 | 22.0 | 29.0 | 0.00 | 0.00 | 0.00 | 77 | 1012.9 |
| 20260903114338 | 58 | 180 | 23.0 | 27.0 | 0.00 | 0.00 | 0.00 | 78 | 1013.3 |
| 20260903113829 | 58 | 180 | 25.0 | 27.0 | 0.00 | 0.00 | 0.00 | 78 | 1013.3 |
| 20260903113318 | 58 | 180 | 20.0 | 28.0 | 0.00 | 0.00 | 0.00 | 79 | 1013.1 |
| 20260903112808 | 58 | 180 | 22.0 | 28.0 | 0.00 | 0.00 | 0.00 | 78 | 1012.8 |
| 20260903112258 | 58 | 180 | 21.0 | 25.0 | 0.00 | 0.00 | 0.00 | 80 | 1012.7 |
| 20260903111748 | 58 | 0 | 17.0 | 25.0 | 0.00 | 0.00 | 0.00 | 81 | 1012.6 |
| 20260903111237 | 58 | 135 | 15.0 | 25.0 | 0.00 | 0.00 | 0.00 | 82 | 1012.1 |
| 20260903110727 | 58 | 180 | 17.0 | 26.0 | 0.00 | 0.00 | 0.00 | 82 | 1012.2 |
| 20260903110217 | 58 | 180 | 16.0 | 26.0 | 0.00 | 0.00 | 0.00 | 81 | 1012.1 |
| 20260903105707 | 59 | 180 | 17.0 | 33.0 | 0.00 | 0.00 | 0.00 | 83 | 1012.1 |
| 20260903104647 | 59 | 180 | 25.0 | 30.0 | 0.00 | 0.00 | 0.00 | 77 | 1011.8 |
| 20260903104137 | 58 | 180 | 22.0 | 30.0 | 0.00 | 0.00 | 0.00 | 80 | 1011.8 |
| 20260903103116 | 58 | 180 | 23.0 | 29.0 | 0.00 | 0.00 | 0.00 | 82 | 1012.1 |
| 20260903102607 | 59 | 180 | 21.0 | 28.0 | 0.00 | 0.00 | 0.00 | 86 | 1012.0 |
| 20260903102057 | 59 | 180 | 21.0 | 25.0 | 0.00 | 0.00 | 0.00 | 86 | 1012.1 |
| 20260903101547 | 59 | 180 | 20.0 | 25.0 | 0.00 | 0.00 | 0.00 | 86 | 1011.9 |
| 20260903101036 | 58 | 180 | 17.0 | 25.0 | 0.00 | 0.00 | 0.00 | 85 | 1011.9 |
| 20260903100531 | 58 | 180 | 21.0 | 25.0 | 0.00 | 0.00 | 0.00 | 84 | 1012.4 |
| 20260903095506 | 58 | 180 | 11.0 | 16.0 | 0.00 | 0.00 | 0.00 | 84 | 1010.9 |
| 20260903094957 | 58 | 180 | 8.0 | 19.0 | 0.00 | 0.00 | 0.00 | 84 | 1010.4 |
| 20260903094442 | 58 | 180 | 13.0 | 19.0 | 0.00 | 0.00 | 0.00 | 83 | 1011.0 |
| 20260903093936 | 59 | 180 | 13.0 | 17.0 | 0.00 | 0.00 | 0.00 | 85 | 1010.9 |
| 20260903092405 | 58 | 180 | 11.0 | 17.0 | 0.00 | 0.00 | 0.00 | 84 | 1010.3 |
| 20260903091345 | 58 | 180 | 13.0 | 17.0 | 0.00 | 0.00 | 0.00 | 84 | 1009.8 |
| 20260903090837 | 58 | 135 | 11.0 | 17.0 | 0.00 | 0.00 | 0.00 | 84 | 1010.0 |
| 20260903090325 | 59 | 180 | 15.0 | 17.0 | 0.00 | 0.00 | 0.00 | 83 | 1009.9 |
| 20260903085815 | 59 | 135 | 12.0 | 15.0 | 0.00 | 0.00 | 0.00 | 83 | 1009.7 |
| 20260903085306 | 59 | 135 | 7.0 | 17.0 | 0.00 | 0.00 | 0.00 | 83 | 1009.6 |
| 20260903084754 | 59 | 180 | 11.0 | 18.0 | 0.00 | 0.00 | 0.00 | 83 | 1009.6 |
| 20260903084244 | 59 | 270 | 11.0 | 18.0 | 0.00 | 0.00 | 0.00 | 83 | 1009.5 |
| 20260903083734 | 60 | 180 | 16.0 | 20.0 | 0.00 | 0.00 | 0.00 | 81 | 1010.0 |
| 20260903083224 | 60 | 180 | 16.0 | 20.0 | 0.00 | 0.00 | 0.00 | 81 | 1010.1 |
| 20260903082714 | 60 | 180 | 14.0 | 19.0 | 0.00 | 0.00 | 0.00 | 82 | 1010.1 |
| 20260903082204 | 60 | 180 | 15.0 | 20.0 | 0.00 | 0.00 | 0.00 | 80 | 1009.9 |
| 20260903081144 | 60 | 180 | 15.0 | 18.0 | 0.00 | 0.00 | 0.00 | 79 | 1010.0 |
| 20260903080634 | 60 | 225 | 7.0 | 16.0 | 0.00 | 0.00 | 0.00 | 83 | 1009.5 |
| 20260903075613 | 60 | 135 | 8.0 | 17.0 | 0.00 | 0.00 | 0.00 | 83 | 1009.4 |
| 20260903074042 | 61 | 180 | 9.0 | 21.0 | 0.00 | 0.00 | 0.00 | 84 | 1008.7 |
| 20260903073533 | 61 | 135 | 11.0 | 25.0 | 0.00 | 0.00 | 0.00 | 84 | 1008.9 |
| 20260903073023 | 61 | 180 | 13.0 | 25.0 | 0.00 | 0.00 | 0.00 | 85 | 1008.7 |
| 20260903072512 | 61 | 180 | 21.0 | 26.0 | 0.00 | 0.00 | 0.00 | 85 | 1009.0 |
| 20260903072002 | 61 | 180 | 17.0 | 27.0 | 0.00 | 0.00 | 0.00 | 87 | 1008.7 |
| 20260903071452 | 61 | 180 | 18.0 | 27.0 | 0.00 | 0.00 | 0.00 | 87 | 1008.2 |
| 20260903070942 | 62 | 135 | 17.0 | 27.0 | 0.00 | 0.00 | 0.00 | 86 | 1008.1 |
| 20260903070432 | 62 | 180 | 16.0 | 27.0 | 0.00 | 0.00 | 0.00 | 85 | 1008.7 |
| 20260903065921 | 62 | 180 | 17.0 | 22.0 | 0.00 | 0.00 | 0.00 | 86 | 1009.1 |
| 20260903065412 | 62 | 225 | 11.0 | 21.0 | 0.00 | 0.00 | 0.00 | 87 | 1009.1 |
| 20260903064901 | 60 | 225 | 9.0 | 40.0 | 0.00 | 0.00 | 0.00 | 86 | 1008.9 |
| 20260903064351 | 59 | 270 | 9.0 | 40.0 | 0.00 | 0.00 | 0.00 | 87 | 1008.9 |
| 20260903062311 | 59 | 0 | 7.0 | 11.0 | 0.00 | 0.00 | 0.00 | 89 | 1007.4 |
| 20260903060742 | 59 | 0 | 6.0 | 0.0 | 0.00 | 0.00 | 0.00 | 89 | 1007.7 |
| 20260903060150 | 59 | 0 | 4.0 | 0.0 | 0.00 | 0.00 | 0.00 | 89 | 1007.7 |
| 20260903060006 | 59 | 0 | 4.0 | 12.0 | 0.00 | 0.01 | 0.00 | 89 | 1007.8 |
| 20260903055455 | 59 | 0 | 4.0 | 11.0 | 0.00 | 0.01 | 0.00 | 89 | 1007.7 |
| 20260903054945 | 59 | 0 | 4.0 | 10.0 | 0.00 | 0.01 | 0.00 | 89 | 1007.9 |
| 20260903053415 | 60 | 270 | 4.0 | 12.0 | 0.00 | 0.01 | 0.00 | 88 | 1008.0 |
| 20260903051334 | 60 | 0 | 5.0 | 9.0 | 0.00 | 0.01 | 0.00 | 87 | 1008.3 |
| 20260903050824 | 60 | 0 | 4.0 | 10.0 | 0.00 | 0.01 | 0.00 | 87 | 1008.0 |
| 20260903050314 | 60 | 0 | 5.0 | 11.0 | 0.00 | 0.01 | 0.00 | 87 | 1008.3 |
| 20260903045804 | 60 | 0 | 5.0 | 11.0 | 0.00 | 0.01 | 0.00 | 87 | 1008.3 |
| 20260903045254 | 60 | 0 | 4.0 | 8.0 | 0.00 | 0.01 | 0.00 | 88 | 1008.4 |
| 20260903044233 | 59 | 0 | 4.0 | 7.0 | 0.00 | 0.01 | 0.00 | 88 | 1008.8 |
| 20260903043723 | 59 | 0 | 3.0 | 6.0 | 0.00 | 0.01 | 0.00 | 88 | 1008.5 |
| 20260903043213 | 59 | 0 | 2.0 | 4.0 | 0.00 | 0.01 | 0.00 | 88 | 1008.7 |
| 20260903042703 | 59 | 0 | 2.0 | 4.0 | 0.00 | 0.01 | 0.00 | 88 | 1008.5 |
| 20260903041132 | 59 | 270 | 1.0 | 4.0 | 0.00 | 0.01 | 0.00 | 89 | 1008.8 |
| 20260903040623 | 59 | 270 | 1.0 | 4.0 | 0.00 | 0.01 | 0.00 | 89 | 1008.7 |
| 20260903040110 | 59 | 270 | 1.0 | 4.0 | 0.00 | 0.01 | 0.00 | 88 | 1008.6 |
| 20260903035602 | 59 | 270 | 1.0 | 6.0 | 0.00 | 0.01 | 0.00 | 88 | 1008.6 |
| 20260903035052 | 60 | 0 | 2.0 | 8.0 | 0.00 | 0.01 | 0.00 | 88 | 1008.4 |
| 20260903034542 | 60 | 0 | 3.0 | 10.0 | 0.00 | 0.01 | 0.00 | 88 | 1008.1 |
| 20260903034042 | 60 | 0 | 4.0 | 10.0 | 0.00 | 0.01 | 0.00 | 88 | 1008.1 |
| 20260903033522 | 60 | 0 | 4.0 | 11.0 | 0.00 | 0.01 | 0.00 | 88 | 1008.1 |
| 20260903033011 | 60 | 315 | 4.0 | 11.0 | 0.00 | 0.01 | 0.00 | 88 | 1007.8 |
| 20260903032501 | 60 | 0 | 5.0 | 11.0 | 0.00 | 0.01 | 0.00 | 87 | 1008.1 |
| 20260903031952 | 60 | 0 | 4.0 | 10.0 | 0.00 | 0.01 | 0.00 | 87 | 1008.0 |
| 20260903030931 | 61 | 0 | 5.0 | 11.0 | 0.00 | 0.01 | 0.00 | 87 | 1008.1 |
| 20260903030421 | 61 | 315 | 6.0 | 11.0 | 0.00 | 0.01 | 0.00 | 87 | 1008.3 |
| 20260903025912 | 61 | 0 | 4.0 | 10.0 | 0.00 | 0.01 | 0.02 | 87 | 1008.2 |
| 20260903025401 | 61 | 270 | 4.0 | 11.0 | 0.00 | 0.01 | 0.02 | 87 | 1008.2 |
| 20260903024851 | 61 | 0 | 6.0 | 12.0 | 0.00 | 0.01 | 0.02 | 87 | 1008.5 |
| 20260903024341 | 61 | 0 | 6.0 | 12.0 | 0.00 | 0.01 | 0.02 | 87 | 1008.5 |
| 20260903023831 | 61 | 270 | 2.0 | 11.0 | 0.00 | 0.01 | 0.02 | 87 | 1008.6 |
| 20260903023321 | 61 | 0 | 3.0 | 11.0 | 0.00 | 0.01 | 0.02 | 87 | 1008.7 |
| 20260903022810 | 61 | 45 | 4.0 | 11.0 | 0.00 | 0.01 | 0.02 | 86 | 1008.7 |
| 20260903022300 | 61 | 315 | 4.0 | 11.0 | 0.00 | 0.01 | 0.02 | 87 | 1008.7 |
| 20260903021751 | 61 | 0 | 5.0 | 11.0 | 0.00 | 0.01 | 0.02 | 87 | 1008.7 |
| 20260903021240 | 61 | 0 | 4.0 | 9.0 | 0.00 | 0.01 | 0.02 | 87 | 1008.6 |
| 20260903020731 | 61 | 0 | 4.0 | 8.0 | 0.00 | 0.01 | 0.02 | 87 | 1008.6 |
| 20260903020223 | 61 | 315 | 4.0 | 8.0 | 0.00 | 0.01 | 0.02 | 87 | 1008.8 |
| 20260903015710 | 61 | 0 | 2.0 | 8.0 | 0.00 | 0.01 | 0.02 | 87 | 1008.8 |
| 20260903015159 | 61 | 0 | 3.0 | 9.0 | 0.00 | 0.01 | 0.02 | 87 | 1008.7 |
| 20260903014650 | 60 | 45 | 3.0 | 9.0 | 0.00 | 0.01 | 0.02 | 87 | 1008.7 |
| 20260903014140 | 60 | 45 | 2.0 | 7.0 | 0.00 | 0.01 | 0.02 | 88 | 1008.7 |
| 20260903013629 | 60 | 315 | 3.0 | 7.0 | 0.00 | 0.01 | 0.02 | 87 | 1008.3 |
| 20260903013119 | 60 | 0 | 3.0 | 7.0 | 0.00 | 0.01 | 0.02 | 87 | 1008.4 |
| 20260903012610 | 60 | 315 | 3.0 | 7.0 | 0.00 | 0.01 | 0.02 | 87 | 1008.5 |
| 20260903012059 | 60 | 0 | 2.0 | 5.0 | 0.00 | 0.01 | 0.02 | 87 | 1008.4 |
| 20260903011548 | 61 | 0 | 2.0 | 6.0 | 0.00 | 0.01 | 0.02 | 86 | 1008.5 |
| 20260903011038 | 61 | 0 | 2.0 | 6.0 | 0.00 | 0.01 | 0.02 | 86 | 1008.7 |
| 20260903005509 | 60 | 0 | 3.0 | 4.0 | 0.00 | 0.01 | 0.02 | 87 | 1008.7 |
| 20260903005005 | 60 | 270 | 2.0 | 4.0 | 0.00 | 0.01 | 0.02 | 86 | 1008.8 |
| 20260903004448 | 61 | 315 | 2.0 | 4.0 | 0.00 | 0.01 | 0.02 | 86 | 1008.9 |
| 20260903003939 | 61 | 270 | 2.0 | 3.0 | 0.00 | 0.01 | 0.02 | 85 | 1008.9 |
| 20260903003429 | 62 | 270 | 2.0 | 2.0 | 0.00 | 0.01 | 0.02 | 85 | 1008.6 |
| 20260903002408 | 62 | 0 | 0.0 | 4.0 | 0.00 | 0.01 | 0.02 | 84 | 1008.8 |
| 20260903001858 | 62 | 0 | 0.0 | 2.0 | 0.00 | 0.01 | 0.02 | 84 | 1008.7 |
| 20260903000838 | 62 | 315 | 1.0 | 3.0 | 0.00 | 0.01 | 0.02 | 84 | 1008.4 |
| 20260903000327 | 63 | 0 | 0.0 | 3.0 | 0.00 | 0.01 | 0.02 | 84 | 1008.2 |
| 20260902235817 | 63 | 0 | 0.0 | 3.0 | 0.00 | 0.01 | 0.02 | 83 | 1008.0 |
| 20260902235307 | 63 | 0 | 0.0 | 2.0 | 0.00 | 0.01 | 0.02 | 82 | 1008.0 |
| 20260902234757 | 64 | 0 | 0.0 | 2.0 | 0.00 | 0.01 | 0.02 | 81 | 1008.1 |
| 20260902234247 | 64 | 0 | 0.0 | 2.0 | 0.00 | 0.01 | 0.02 | 81 | 1008.0 |
| 20260902233736 | 64 | 0 | 0.0 | 2.0 | 0.00 | 0.01 | 0.02 | 80 | 1008.0 |
| 20260902233227 | 65 | 0 | 1.0 | 5.0 | 0.00 | 0.01 | 0.02 | 80 | 1007.9 |
| 20260902232717 | 65 | 0 | 0.0 | 5.0 | 0.00 | 0.01 | 0.02 | 79 | 1007.8 |
| 20260902232207 | 66 | 0 | 1.0 | 5.0 | 0.00 | 0.01 | 0.02 | 79 | 1007.7 |
| 20260902231657 | 66 | 0 | 2.0 | 8.0 | 0.00 | 0.01 | 0.02 | 78 | 1008.0 |
| 20260902231147 | 66 | 0 | 2.0 | 8.0 | 0.00 | 0.01 | 0.02 | 76 | 1007.7 |
| 20260902230636 | 67 | 0 | 3.0 | 8.0 | 0.00 | 0.01 | 0.02 | 76 | 1007.6 |
| 20260902230126 | 67 | 90 | 2.0 | 8.0 | 0.00 | 0.01 | 0.02 | 76 | 1007.6 |
| 20260902225616 | 67 | 0 | 2.0 | 8.0 | 0.00 | 0.01 | 0.02 | 76 | 1007.4 |
| 20260902225106 | 67 | 0 | 1.0 | 7.0 | 0.00 | 0.01 | 0.02 | 76 | 1007.2 |
| 20260902224555 | 67 | 0 | 2.0 | 9.0 | 0.00 | 0.01 | 0.02 | 76 | 1007.2 |
| 20260902223535 | 67 | 0 | 8.0 | 10.0 | 0.00 | 0.01 | 0.02 | 75 | 1007.4 |
| 20260902223025 | 67 | 0 | 4.0 | 11.0 | 0.00 | 0.01 | 0.02 | 75 | 1007.6 |
| 20260902222005 | 68 | 0 | 1.0 | 11.0 | 0.00 | 0.01 | 0.02 | 75 | 1007.4 |
| 20260902221455 | 68 | 0 | 3.0 | 11.0 | 0.00 | 0.01 | 0.02 | 74 | 1007.6 |
| 20260902215927 | 69 | 0 | 4.0 | 13.0 | 0.00 | 0.01 | 0.02 | 72 | 1007.7 |
| 20260902215415 | 69 | 0 | 4.0 | 13.0 | 0.00 | 0.01 | 0.02 | 71 | 1007.5 |
| 20260902214905 | 70 | 0 | 3.0 | 14.0 | 0.00 | 0.01 | 0.02 | 70 | 1007.6 |
| 20260902214354 | 70 | 45 | 9.0 | 14.0 | 0.00 | 0.01 | 0.02 | 70 | 1007.6 |